Hourly Data Report for October 04, 2017

All times are specified in Local Standard Time (LST). Add 1 hour to adjust for Daylight Saving Time where and when it is observed.

SYDNEY A
NOVA SCOTIA

46°09'41.000" N
60°02'53.000" W
61.90 m
8205701
71707
YQY

Download Data

Hourly Data (October 2017)
Hourly Data Report for October 4, 2017
Temp Definition
°C
Dew Point Temp Definition
°C
Rel Hum Definition
%
Wind Dir Definition
10's deg

Wind Spd Definition
km/h
Visibility Definition
km
Stn Press Definition
kPa
Hmdx Definition


Wind Chill Definition


Weather Definition


TIME
00:00 Legend Double Dagger 3.8 2.9 94 22 11 24.1 102.07     LegendNANA
01:00 Legend Double Dagger 4.6 3.5 93 22 10 24.1 101.97     LegendNANA
02:00 Legend Double Dagger 6.6 5.2 91 22 12 24.1 101.90     Mostly Cloudy
03:00 Legend Double Dagger 7.2 6.1 93 24 14 24.1 101.81     LegendNANA
04:00 Legend Double Dagger 6.7 5.9 95 23 13 24.1 101.77     LegendNANA
05:00 Legend Double Dagger 6.3 5.3 93 22 14 24.1 101.71     Mainly Clear
06:00 Legend Double Dagger 5.0 4.5 96 23 16 24.1 101.59     LegendNANA
07:00 Legend Double Dagger 6.7 5.7 93 21 12 24.1 101.53     LegendNANA
08:00 Legend Double Dagger 10.4 7.8 83 23 20 24.1 101.45     Mainly Clear
09:00 Legend Double Dagger 13.0 9.3 78 25 27 24.1 101.39     LegendNANA
10:00 Legend Double Dagger 15.1 10.1 72 22 17 24.1 101.32     LegendNANA
11:00 Legend Double Dagger 17.0 10.9 67 29 22 24.1 101.27     Mostly Cloudy
12:00 Legend Double Dagger 17.2 10.8 65 25 26 24.1 101.18     LegendNANA
13:00 Legend Double Dagger 18.1 10.6 61 26 24 24.1 101.09     LegendNANA
14:00 Legend Double Dagger 18.8 10.3 58 25 28 24.1 100.99     Mainly Clear
15:00 Legend Double Dagger 19.1 11.3 60 26 21 24.1 100.91     LegendNANA
16:00 Legend Double Dagger 18.7 10.6 59 26 26 24.1 100.87     LegendNANA
17:00 Legend Double Dagger 17.2 11.1 67 25 16 24.1 100.89     Mostly Cloudy
18:00 Legend Double Dagger 15.3 11.0 76 18 8 24.1 100.83     LegendNANA
19:00 Legend Double Dagger 13.5 10.8 84 18 12 24.1 100.73     LegendNANA
20:00 Legend Double Dagger 13.1 11.5 90 18 15 24.1 100.65     Mainly Clear
21:00 Legend Double Dagger 13.5 12.1 91 22 10 24.1 100.61     LegendNANA
22:00 Legend Double Dagger 14.7 12.4 86 23 24 24.1 100.54     LegendNANA
23:00 Legend Double Dagger 14.0 12.4 90 22 15 24.1 100.52     Mainly Clear

Notes on Data Quality.

Legend

  • E = Estimated
  • M = Missing
  • NA = Not Available
  • ‡ = Partner data that is not subject to review by the National Climate Archives
Date modified: